Home > Weather > Winnipeg > Past weeks

Flag for Canada Past Weather in Winnipeg, Manitoba, Canada — Yesterday and Last 2 Weeks

Now
73 °F

Mild.


Feels Like: 77 °F
Forecast: 52 / 78 °F
Wind: 7 mph from Southwest

Location: Winnipeg The Forks Man

Current Time: Jun 28, 2016 at 1:43:45 PM

Latest Report: Jun 28, 2016 at 1:00 PM


Visibility: N/A

Pressure: 30.16 "Hg

Humidity: 48%

Dew Point: 52 °F

Location of WinnipegLocation

Past Weather in Winnipeg — Graph

°F

Winnipeg Temperature Yesterday

Maximum temperature yesterday: 70 °F (at 6:00 PM)
Minimum temperature yesterday: 51 °F (at 6:00 AM)
Average temperature yesterday: 61 °F

High & Low Weather Summary for the Past Weeks

 TemperatureHumidityPressure
High82 °F (Jun 19, 5:00 PM)95% (Jun 19, 6:00 AM)30.27 "Hg (Jun 19, 6:00 AM)
Low51 °F (Jun 27, 6:00 AM)23% (Jun 13, 4:00 PM)29.55 "Hg (Jun 26, 3:00 AM)
Average68 °F61%29.91 "Hg
* Reported Jun 13 12:00 PM — Jun 28 12:00 PM, Winnipeg, Weather by CustomWeather, © 2016

Note: Actual official high and low records may vary slightly from our data, if they occured in-between our weather recording intervals... More about our weather records

Advertising

Winnipeg Weather History for the Previous 24 Hours

Scroll right to see more
 ConditionsComfort  
Time TempWeatherWind HumidityBarometerVisibility
12:00 PM
Tue, Jun 28
72 °FMild.6 mph54%30.18 "HgN/A
11:00 AM71 °FMild.3 mph55%30.19 "HgN/A
10:00 AM69 °FMild.3 mph55%30.20 "HgN/A
9:00 AM64 °FMild.3 mph66%30.20 "HgN/A
8:00 AM62 °FCool.5 mph70%30.21 "HgN/A
7:00 AM58 °FCool.3 mph75%30.21 "HgN/A
6:00 AM57 °FCool.5 mph79%30.21 "HgN/A
5:00 AM58 °FCool.5 mph75%30.21 "HgN/A
4:00 AM59 °FCool.3 mph72%30.21 "HgN/A
3:00 AM60 °FCool.3 mph63%30.22 "HgN/A
2:00 AM62 °FCool.2 mph65%30.22 "HgN/A
1:00 AM60 °FCool.1 mph78%30.22 "HgN/A
12:00 AM60 °FCool.No wind78%30.23 "HgN/A
11:00 PM
Mon, Jun 27
64 °FMild.1 mph65%30.23 "HgN/A
10:00 PM67 °FMild.1 mph53%30.22 "HgN/A
9:00 PM69 °FMild.3 mph49%30.22 "HgN/A
8:00 PM70 °FMild.2 mph48%30.22 "HgN/A
7:00 PM70 °FMild.2 mph50%30.22 "HgN/A
6:00 PM70 °FMild.3 mph47%30.23 "HgN/A
5:00 PM69 °FMild.3 mph49%30.23 "HgN/A
4:00 PM68 °FMild.5 mph48%30.24 "HgN/A
3:00 PM68 °FMild.3 mph47%30.25 "HgN/A
2:00 PM67 °FMild.3 mph51%30.25 "HgN/A
1:00 PM65 °FMild.5 mph56%30.27 "HgN/A
Weather by CustomWeather, © 2016

See weather overviewHow to use our weather pages